STARLINK-1437 (45714 NORAD) Tracking and Keplerian Element Data

This shows tracking and keplerian element data for the satellite.

Feedback or suggestion? Click here.




ElementValue
Catalog45714
NameSTARLINK-1437
Epoch Orbit657
Epoch Day192.16668981
Epoch Year2020
RAAN352.3292
Inclination52.9993
Eccentricity0.0001451
Argument of Perigee68.0316
Mean Anonmoly85.5304
Mean Motion15.62778703
Decay Rate-0.00013542
L11 45714U 20035BK 20192.16668981 -.00013542 00000-0 -14215-3 0 9993
L22 45714 52.9993 352.3292 0001451 68.0316 85.5304 15.62778703 6570

Live tracking and technical data element details for STARLINK-1437 (NORAD 45714). STARLINK-1437 can be tracked NOW for your location showing map with azimuth and elevation plus other details from your city location.

Track the satellite on the map from your city or location and see movement details for azimuth, elevation, latitude, longitude, range, height, and movement on the map or in text.







IsCatalogInMostPopularTable: catalog: 45714, numindb: 10
Update: records affected: 1



GetName: 45714 STARLINK-1437

Hit Count: updated at: Fri, 10 Jul 2020 15:01:20 GMT